Location: Fort Worth, Tx
(32.7431°N, 97.3695°W)
Time: 00:47:13
(UTC-04:00)

ISS - Visible Passes

Search period start: 23 September 2023 00:00
Search period end: 03 October 2023 00:00
Orbit: 414 x 422 km, 51.6° (Epoch: 22 September)

Date Brightness Start Highest point End Pass type
(mag) Time Alt. Az. Time Alt. Az. Time Alt. Az.
30 Sep -1.7 21:53:50 10° NNW 21:55:23 20° N 21:55:23 20° N visible
01 Oct -1.8 21:06:07 10° N 21:08:19 16° NNE 21:09:16 15° NE visible
01 Oct -0.3 22:42:02 10° WNW 22:42:12 11° WNW 22:42:12 11° WNW visible
02 Oct -3.0 21:53:39 10° NW 21:56:10 48° NW 21:56:10 48° NW visible
